Date String (YYYY-MM-DD hh:mm:ss) UTC,Instrument flags,absolute air pressure of the measurement (hPa),sample flow rate (lpm),inlet stack bypass flow (lpm),air temperature of the measurement (°C),ambient temperature measured by the external sensor (°C),aerosol sample conditioner tube jacket temperature (°C),OPC LED temperature (°C),internal box temperature (°C),relative humidity of the measurement (%),span deviation,mass concentration of particles derived from Lorenz-Mie calculation of OPC scattering (μg/m³),mass concentration of particles derived from Lorenz-Mie calculation of OPC scattering (μg/m³),mass concentration of particles derived from Lorenz-Mie calculation of OPC scattering (μg/m³)
DateTimeUTC,F1_M11,P_M11,Q1_M11,Q2_M11,T1_M11,T2_M11,T3_M11,T4_M11,T5_M11,U1_M11,ZSPAN_M11,X2_M11,X0_M11,X1_M11
2024-02-07 14:00:00,SystemResetWarning,0813.3,5.00,000.00,018.6,017.9,000.0,027.0,020.2,18.1,0004.6,0005.35,0008.67,0005.04
2024-02-07 14:01:00,SystemResetWarning,0813.3,4.99,000.00,018.5,017.9,000.0,026.9,020.2,18.2,0004.6,0005.24,0008.49,0004.95
2024-02-07 14:02:00,SystemResetWarning,0813.3,5.00,000.00,018.5,017.9,000.0,026.9,020.2,18.3,0004.4,0005.04,0008.23,0004.77
2024-02-07 14:03:00,SystemResetWarning,0813.3,5.01,000.00,018.5,017.8,000.0,026.9,020.1,18.3,0003.9,0004.82,0008.29,0004.54
2024-02-07 14:04:00,SystemResetWarning,0813.3,5.00,000.00,018.5,017.8,000.0,026.9,020.1,18.3,0000.0,0004.58,0008.08,0004.32
2024-02-07 14:05:00,SystemResetWarning,0813.3,4.99,000.00,018.5,017.8,000.0,026.9,020.1,18.0,0000.0,0004.41,0007.88,0004.17
2024-02-07 14:06:00,SystemResetWarning,0813.2,5.00,000.00,018.5,017.8,000.0,026.9,020.1,17.8,0000.0,0004.27,0007.81,0004.04
2024-02-07 14:07:00,SystemResetWarning,0813.2,5.00,000.00,018.5,017.8,000.0,026.9,020.1,17.7,0000.0,0004.14,0007.65,0003.91
2024-02-07 14:08:00,SystemResetWarning,0813.2,5.01,000.00,018.5,017.8,000.0,026.9,020.1,17.8,0000.0,0003.96,0007.42,0003.75
2024-02-07 14:09:00,SystemResetWarning,0813.2,5.00,000.00,018.5,017.8,000.0,026.9,020.1,17.8,0000.0,0003.78,0007.20,0003.54
2024-02-07 14:10:00,SystemResetWarning,0813.2,5.00,000.00,018.5,017.8,000.0,026.9,020.1,17.7,0000.0,0003.55,0005.80,0003.33
2024-02-07 14:11:00,SystemResetWarning,0813.2,5.00,000.00,018.5,017.8,000.0,026.9,020.0,17.6,0000.0,0003.31,0005.22,0003.09
2024-02-07 14:12:00,SystemResetWarning,0813.2,5.00,000.00,018.5,017.8,000.0,026.9,020.0,17.5,0000.0,0003.10,0005.00,0002.76
2024-02-07 14:13:00,SystemResetWarning,0813.2,5.00,000.00,018.4,017.8,000.0,026.9,020.0,17.5,0000.0,0002.91,0004.92,0002.55
2024-02-07 14:14:00,SystemResetWarning,0813.2,5.00,000.00,018.4,017.8,000.0,026.9,020.0,17.7,0000.0,0002.75,0004.48,0002.40
2024-02-07 14:15:00,SystemResetWarning,0813.2,5.00,000.00,018.4,017.8,000.0,026.8,020.0,17.8,0000.0,0002.62,0004.10,0002.28
2024-02-07 14:16:00,SystemResetWarning,0813.2,5.00,000.00,018.4,017.8,000.0,026.8,020.0,17.8,0000.0,0002.46,0003.90,0002.14
2024-02-07 14:17:00,SystemResetWarning,0813.2,5.00,000.00,018.4,017.7,000.0,026.8,020.0,17.9,0000.0,0002.24,0003.52,0001.96
2024-02-07 14:18:00,SystemResetWarning,0813.2,5.00,000.00,018.4,017.7,000.0,026.8,020.0,18.0,0000.0,0002.07,0003.27,0001.82
2024-02-07 14:19:00,SystemResetWarning,0813.1,5.00,000.00,018.4,017.7,000.0,026.8,020.0,18.0,0000.0,0001.95,0003.12,0001.70
2024-02-07 14:20:00,SystemResetWarning,0813.0,5.00,000.00,018.4,017.7,000.0,026.9,020.0,18.1,0000.0,0001.88,0003.01,0001.66
2024-02-07 14:21:00,SystemResetWarning,0813.0,5.00,000.00,018.4,017.7,000.0,026.8,020.0,18.1,0000.0,0001.91,0003.05,0001.71
2024-02-07 14:22:00,SystemResetWarning,0813.0,5.00,000.00,018.4,017.7,000.0,026.8,020.0,18.3,0000.0,0001.96,0002.89,0001.78
2024-02-07 14:23:00,SystemResetWarning,0813.0,4.99,000.00,018.4,017.7,000.0,026.9,020.0,18.4,0000.0,0002.02,0002.73,0001.85
2024-02-07 14:24:00,SystemResetWarning,0813.0,5.00,000.00,018.4,017.7,000.0,026.9,020.0,18.4,0000.0,0002.10,0002.70,0001.94
2024-02-07 14:25:00,SystemResetWarning,0813.0,5.00,000.00,018.4,017.7,000.0,026.9,020.0,18.3,0000.0,0002.26,0002.94,0002.07
2024-02-07 14:26:00,SystemResetWarning,0813.0,5.00,000.00,018.4,017.7,000.0,026.9,020.0,18.3,0000.0,0002.48,0003.19,0002.29
2024-02-07 14:27:00,SystemResetWarning,0813.0,5.00,000.00,018.4,017.7,000.0,026.9,020.0,18.4,0000.0,0002.71,0003.42,0002.52
2024-02-07 14:28:00,SystemResetWarning,0813.0,5.00,000.00,018.4,017.6,000.0,026.9,020.0,18.3,0000.0,0002.96,0003.76,0002.72
2024-02-07 14:29:00,SystemResetWarning,0813.0,5.00,000.00,018.4,017.6,000.0,026.9,020.0,18.5,0000.0,0003.12,0004.00,0002.89
2024-02-07 14:30:00,SystemResetWarning,0813.0,5.00,000.00,018.4,017.6,000.0,026.9,020.0,18.7,0000.0,0003.22,0004.19,0003.05
2024-02-07 14:31:00,SystemResetWarning,0813.0,5.00,000.00,018.4,017.6,000.0,026.9,020.0,18.7,0000.0,0003.32,0004.43,0003.15
2024-02-07 14:32:00,SystemResetWarning,0813.0,5.00,000.00,018.4,017.6,000.0,026.9,020.0,18.6,0000.0,0003.43,0004.60,0003.26
2024-02-07 14:33:00,SystemResetWarning,0813.0,5.00,000.00,018.4,017.6,000.0,026.9,020.0,18.3,0000.0,0003.58,0004.93,0003.38
2024-02-07 14:34:00,SystemResetWarning,0813.0,5.00,000.00,018.4,017.6,000.0,026.9,020.0,18.1,0000.0,0003.74,0005.29,0003.50
2024-02-07 14:35:00,SystemResetWarning,0813.0,5.00,000.00,018.4,017.6,000.0,026.9,020.0,18.2,0000.0,0003.89,0005.62,0003.63
2024-02-07 14:36:00,SystemResetWarning,0813.0,5.00,000.00,018.4,017.7,000.0,026.8,020.0,18.3,0000.0,0003.97,0005.76,0003.71
2024-02-07 14:37:00,SystemResetWarning,0813.0,5.00,000.00,018.4,017.7,000.0,026.8,020.0,18.3,0000.0,0003.97,0005.77,0003.72
2024-02-07 14:38:00,SystemResetWarning,0812.9,5.00,000.00,018.4,017.7,000.0,026.9,020.0,18.2,0000.0,0003.97,0005.87,0003.70
2024-02-07 14:39:00,SystemResetWarning,0812.9,5.00,000.00,018.4,017.6,000.0,026.9,020.0,18.2,0000.0,0003.95,0005.82,0003.69
2024-02-07 14:40:00,SystemResetWarning,0812.8,5.00,000.00,018.4,017.6,000.0,026.9,020.0,18.3,0000.0,0003.92,0005.73,0003.66
2024-02-07 14:41:00,SystemResetWarning,0812.8,4.99,000.00,018.4,017.6,000.0,026.9,020.0,18.3,0000.0,0003.88,0007.07,0003.62
2024-02-07 14:42:00,SystemResetWarning,0812.8,4.99,000.00,018.4,017.6,000.0,026.8,020.0,18.4,0000.0,0003.83,0007.35,0003.57
2024-02-07 14:43:00,SystemResetWarning,0812.8,5.01,000.00,018.4,017.6,000.0,026.8,020.0,18.4,0000.0,0003.73,0007.19,0003.50
2024-02-07 14:44:00,SystemResetWarning,0812.8,5.01,000.00,018.4,017.6,000.0,026.9,020.0,18.5,0000.0,0003.60,0006.97,0003.38
2024-02-07 14:45:00,SystemResetWarning,0812.8,5.01,000.00,018.4,017.6,000.0,026.8,020.0,18.5,0000.0,0003.40,0006.52,0003.22
2024-02-07 14:46:00,SystemResetWarning,0812.8,5.00,000.00,018.4,017.6,000.0,026.8,020.0,18.5,0000.0,0003.23,0006.17,0003.06
2024-02-07 14:47:00,SystemResetWarning,0812.8,5.00,000.00,018.3,017.6,000.0,026.8,020.0,18.4,0000.0,0003.09,0005.78,0002.84
2024-02-07 14:48:00,SystemResetWarning,0812.8,4.99,000.00,018.3,017.6,000.0,026.8,020.0,18.2,0000.0,0002.93,0005.44,0002.68
2024-02-07 14:49:00,SystemResetWarning,0812.8,4.99,000.00,018.3,017.6,000.0,026.8,020.0,18.4,0000.0,0002.76,0005.14,0002.54
2024-02-07 14:50:00,SystemResetWarning,0812.8,5.00,000.00,018.3,017.6,000.0,026.8,020.0,18.8,0000.0,0002.58,0004.91,0002.40
2024-02-07 14:51:00,SystemResetWarning,0812.9,5.02,000.00,018.3,017.6,000.0,026.8,020.0,18.8,0000.0,0002.44,0004.71,0002.29
2024-02-07 14:52:00,SystemResetWarning,0812.8,5.00,000.00,018.3,017.6,000.0,026.8,020.0,19.0,0000.0,0002.34,0002.94,0002.20
2024-02-07 14:53:00,SystemResetWarning,0812.8,5.00,000.00,018.3,017.6,000.0,026.8,020.0,19.4,0000.0,0002.26,0003.22,0002.12
2024-02-07 14:54:00,SystemResetWarning,0812.8,4.99,000.00,018.3,017.6,000.0,026.8,020.0,19.5,0000.0,0002.26,0003.84,0002.10
2024-02-07 14:55:00,SystemResetWarning,0812.8,5.00,000.00,018.3,017.6,000.0,026.8,020.0,19.4,0000.0,0002.30,0003.81,0002.15
2024-02-07 14:56:00,SystemResetWarning,0812.8,5.00,000.00,018.3,017.6,000.0,026.8,020.0,19.6,0000.0,0002.39,0003.89,0002.25
2024-02-07 14:57:00,SystemResetWarning,0812.8,5.01,000.00,018.3,017.6,000.0,026.9,020.0,19.6,0000.0,0002.57,0004.11,0002.39
2024-02-07 14:58:00,SystemResetWarning,0812.8,5.01,000.00,018.3,017.7,000.0,026.9,020.0,19.6,0000.0,0002.75,0004.33,0002.55
2024-02-07 14:59:00,SystemResetWarning,0812.8,5.01,000.00,018.4,017.7,000.0,026.9,020.0,19.7,0000.0,0002.95,0004.56,0002.73
